Regional Weather Roundup
Issued by NWS

Home | Current Version | Previous Version | Graphics & Text | Print | Product List | Glossary On
Versions: 1 2 3 4 5 6 7 8 9 10 11 12 13 14 15 16 17 18 19 20 21 22 23 24 25 26 27 28 29 30 31 32 33 34 35 36 37 38 39 40 41 42 43 44 45 46 47 48 49 50
000
ASUS45 KBOI 252310
RWRID
WEATHER ROUNDUP FOR IDAHO
NATIONAL WEATHER SERVICE BOISE ID
400 PM MST SUN JAN 25 2015

NOTE: "FAIR" INDICATES FEW OR NO CLOUDS BELOW 12000 FEET
WITH NO SIGNIFICANT WEATHER AND/OR OBSTRUCTIONS TO VISIBILITY

IDZ012-014-260000-
SOUTHWEST IDAHO


CITY           SKY/WX    TMP DP  RH WIND       PRES   REMARKS
BOISE          MOSUNNY   45  35  68 W5        30.41S
CALDWELL       PTSUNNY   39  30  70 SE3       30.45S
MOUNTAIN HOME  SUNNY     40  35  80 SW5       30.41R
$$

IDZ016-017-260000-
SOUTHCENTRAL IDAHO


CITY           SKY/WX    TMP DP  RH WIND       PRES   REMARKS
BURLEY         SUNNY     48  34  58 NE7       30.38R
JEROME         MOSUNNY   39  32  76 NE14      30.39S WCI  31
TWIN FALLS     SUNNY     49  35  58 CALM      30.38F
$$

IDZ019>023-260000-
SOUTHEAST IDAHO


CITY           SKY/WX    TMP DP  RH WIND       PRES   REMARKS
IDAHO FALLS    CLOUDY    31  29  92 N7        30.45S WCI  24
POCATELLO      MOSUNNY   37  33  85 N10       30.43R WCI  30
REXBURG        CLOUDY    31  30  96 NE5       30.44R WCI  26
$$

IDZ006-010-011-018-031-032-260000-
CENTRAL IDAHO MOUNTAINS


CITY           SKY/WX    TMP DP  RH WIND       PRES   REMARKS
MCCALL         MOSUNNY   37  34  89 CALM      30.36S
HAILEY         PTSUNNY   30  28  93 SE7       30.40S WCI  23
STANLEY          N/A     43  30  60 CALM      30.40R
SALMON         PTSUNNY   36  28  75 CALM      30.36S
CHALLIS        PTSUNNY   43  33  68 N3        30.35R
$$

IDZ002-004-006-007-026-260000-
NORTHERN IDAHO


CITY           SKY/WX    TMP DP  RH WIND       PRES   REMARKS
LEWISTON       SUNNY     60  40  47 S16       30.20F
LOWELL           N/A     42  38  85 N6        30.30F
COEUR D`ALENE  PTSUNNY   55  45  67 CALM      30.18S
MULLAN PASS    SUNNY     43  30  60 W8        30.24R
$$


USA.gov is the U.S. government's official web portal to all federal, state and local government web resources and services.